Location: McFarlands Corners
(41.4117°N, 81.3382°W)
Time: 05:59:59
(UTC+00:00)

Transit 4A - Pass Details

Date: 16 February 2026
Orbit: 864 x 977 km, 66.8° (Epoch: 5 March)

Event Time Altitude Azimuth Distance (km) Brightness Sun altitude
Rises 10:32:15 0° 239° (WSW) 3,452 - -20.6°
Reaches altitude 10° 10:34:58 10° 249° (WSW) 2,529 - -20.1°
Exits shadow 10:39:18 31° 295° (WNW) 1,524 8.5 -19.3°
Maximum altitude 10:40:09 32° 312° (NW) 1,490 8.6 -19.1°
Drops below altitude 10° 10:45:30 10° 14° (NNE) 2,602 10.4 -18.1°
Sets 10:48:21 0° 24° (NNE) 3,567 11.3 -17.6°
